Stations météo

réclame
Mon MeteoGroup
Lentran, Grande-Bretagne (99125): Température de l'air & dewpoint: 16.04.2019 16:00:00 - 22.04.2019 16:00:00 (BST)Lentran, Grande-Bretagne (99125): Quantités de précipitations: 16.04.2019 16:00:00 - 22.04.2019 16:00:00 (BST)
Date & Time tt [°C] td [°C] rr [mm]
22.04.2019 16:00:00 - - -
22.04.2019 15:00:00 - - -
22.04.2019 14:00:00 - - -
22.04.2019 13:00:00 20,9 4,1 0,0
22.04.2019 12:00:00 19,8 4,5 0,0
22.04.2019 11:00:00 19,1 4,2 0,0
22.04.2019 10:00:00 17,3 4,4 0,0
22.04.2019 09:00:00 15,6 5,2 0,0
22.04.2019 08:00:00 13,4 5,8 0,0
22.04.2019 07:00:00 8,8 5,2 0,0
22.04.2019 06:00:00 8,1 4,9 0,0
22.04.2019 05:00:00 9,1 5,4 0,0
22.04.2019 04:00:00 10,3 5,1 0,0
22.04.2019 03:00:00 11,0 5,9 0,0
22.04.2019 02:00:00 12,6 6,0 0,0
22.04.2019 01:00:00 13,9 7,1 0,0
22.04.2019 00:00:00 13,6 7,1 0,0
21.04.2019 23:00:00 14,6 7,3 0,0
21.04.2019 22:00:00 14,6 7,4 0,0
21.04.2019 21:00:00 15,6 7,6 0,0
21.04.2019 20:00:00 17,0 8,2 0,0
21.04.2019 19:00:00 17,8 9,5 0,0
21.04.2019 18:00:00 19,2 10,1 0,0
21.04.2019 17:00:00 20,3 10,4 0,0
21.04.2019 16:00:00 20,8 10,8 0,0
21.04.2019 15:00:00 20,2 9,8 0,0
21.04.2019 14:00:00 19,6 11,2 0,0
21.04.2019 13:00:00 17,7 11,5 0,0
21.04.2019 12:00:00 16,8 11,4 0,0
21.04.2019 11:00:00 14,5 11,5 0,0
21.04.2019 10:00:00 13,4 11,8 0,0
21.04.2019 09:00:00 12,4 12,4 0,0
21.04.2019 08:00:00 11,2 11,2 0,0
21.04.2019 07:00:00 9,3 9,3 0,0
21.04.2019 06:00:00 9,1 9,1 0,0
21.04.2019 05:00:00 8,9 8,8 0,2
21.04.2019 04:00:00 8,9 8,8 0,0
21.04.2019 03:00:00 9,1 9,0 0,0
21.04.2019 02:00:00 9,1 9,0 0,0
21.04.2019 01:00:00 9,5 9,3 0,2
21.04.2019 00:00:00 9,6 9,2 0,0
20.04.2019 23:00:00 10,0 9,8 0,0
20.04.2019 22:00:00 10,1 9,9 0,0
20.04.2019 21:00:00 10,6 10,1 0,0
20.04.2019 20:00:00 11,4 10,5 0,2
20.04.2019 19:00:00 13,0 12,0 0,6
20.04.2019 18:00:00 13,7 11,4 0,2
20.04.2019 17:00:00 15,6 11,2 0,0
20.04.2019 16:00:00 16,0 10,7 0,0
20.04.2019 15:00:00 16,8 9,7 0,0
20.04.2019 14:00:00 17,3 10,1 0,0
20.04.2019 13:00:00 17,9 10,5 0,0
20.04.2019 12:00:00 18,1 9,9 0,0
20.04.2019 11:00:00 17,4 10,0 0,0
20.04.2019 10:00:00 15,9 10,1 0,0
20.04.2019 09:00:00 14,4 9,5 0,0
20.04.2019 08:00:00 12,9 8,3 0,0
20.04.2019 07:00:00 11,8 7,3 0,0
20.04.2019 06:00:00 12,6 6,7 0,0
20.04.2019 05:00:00 13,8 6,3 0,0
20.04.2019 04:00:00 13,7 5,7 0,0
20.04.2019 03:00:00 12,2 5,6 0,0
20.04.2019 02:00:00 13,4 5,3 0,0
20.04.2019 01:00:00 12,9 5,2 0,0
20.04.2019 00:00:00 12,2 5,3 0,0
19.04.2019 23:00:00 13,5 4,4 0,0
19.04.2019 22:00:00 13,0 5,1 0,0
19.04.2019 21:00:00 13,7 5,9 0,0
19.04.2019 20:00:00 16,5 5,3 0,0
19.04.2019 19:00:00 18,4 5,8 0,0
19.04.2019 18:00:00 20,5 6,9 0,0
19.04.2019 17:00:00 21,0 6,4 0,0
19.04.2019 16:00:00 20,6 5,1 0,0
19.04.2019 15:00:00 21,4 6,5 0,0
19.04.2019 14:00:00 21,5 8,2 0,0
19.04.2019 13:00:00 18,5 8,0 0,0
19.04.2019 12:00:00 15,9 6,3 0,0
19.04.2019 11:00:00 13,7 5,9 0,0
19.04.2019 10:00:00 11,3 5,9 0,0
19.04.2019 09:00:00 9,0 4,4 0,0
19.04.2019 08:00:00 7,9 4,6 0,0
19.04.2019 07:00:00 6,0 3,4 0,0
19.04.2019 06:00:00 6,4 2,5 0,0
19.04.2019 05:00:00 6,5 2,8 0,0
19.04.2019 04:00:00 6,9 3,0 0,0
19.04.2019 03:00:00 7,9 2,5 0,0
19.04.2019 02:00:00 9,1 1,8 0,0
19.04.2019 01:00:00 11,1 2,0 0,0
19.04.2019 00:00:00 11,8 2,8 0,0
18.04.2019 23:00:00 12,3 4,1 0,0
18.04.2019 22:00:00 12,8 4,8 0,0
18.04.2019 21:00:00 14,5 5,0 0,0
18.04.2019 20:00:00 15,7 4,6 0,0
18.04.2019 19:00:00 16,9 3,9 0,0
18.04.2019 18:00:00 17,3 3,9 0,0
18.04.2019 17:00:00 18,0 6,1 0,0
18.04.2019 16:00:00 18,1 6,0 0,0
18.04.2019 15:00:00 15,0 7,4 0,0
18.04.2019 14:00:00 13,4 5,3 0,0
18.04.2019 13:00:00 12,9 5,3 0,0
18.04.2019 12:00:00 11,9 4,8 0,0
18.04.2019 11:00:00 9,5 4,6 0,0
18.04.2019 10:00:00 7,8 4,0 0,0
18.04.2019 09:00:00 6,1 3,2 0,0
18.04.2019 08:00:00 5,3 2,4 0,0
18.04.2019 07:00:00 4,0 2,4 0,0
18.04.2019 06:00:00 3,4 1,5 0,0
18.04.2019 05:00:00 3,3 1,4 0,0
18.04.2019 04:00:00 3,6 1,6 0,0
18.04.2019 03:00:00 3,0 1,1 0,0
18.04.2019 02:00:00 3,5 0,7 0,0
18.04.2019 01:00:00 3,7 1,2 0,0
18.04.2019 00:00:00 4,4 1,6 0,0
17.04.2019 23:00:00 5,1 2,2 0,0
17.04.2019 22:00:00 5,8 3,1 0,0
17.04.2019 21:00:00 8,5 2,0 0,0
17.04.2019 20:00:00 11,0 2,7 0,0
17.04.2019 19:00:00 13,9 1,5 0,0
17.04.2019 18:00:00 15,6 3,6 0,0
17.04.2019 17:00:00 13,8 3,1 0,0
17.04.2019 16:00:00 14,4 3,8 0,0
17.04.2019 15:00:00 12,9 5,0 0,0
17.04.2019 14:00:00 12,2 4,8 0,0
17.04.2019 13:00:00 10,3 4,6 0,0
17.04.2019 12:00:00 8,4 4,7 0,0
17.04.2019 11:00:00 7,1 5,4 0,0
17.04.2019 10:00:00 5,8 5,1 0,0
17.04.2019 09:00:00 4,5 4,4 0,0
17.04.2019 08:00:00 4,2 4,1 0,0
17.04.2019 07:00:00 3,8 3,7 0,0
17.04.2019 06:00:00 3,7 3,6 0,2
17.04.2019 05:00:00 3,7 3,5 0,0
17.04.2019 04:00:00 4,4 4,2 0,0
17.04.2019 03:00:00 4,5 4,2 0,0
17.04.2019 02:00:00 4,6 4,1 0,0
17.04.2019 01:00:00 5,0 4,6 0,2
17.04.2019 00:00:00 5,1 4,8 0,8
16.04.2019 23:00:00 5,4 5,0 0,4
16.04.2019 22:00:00 5,7 5,2 1,0
16.04.2019 21:00:00 6,5 5,5 0,8
16.04.2019 20:00:00 8,1 6,1 0,0
16.04.2019 19:00:00 9,4 6,2 0,0
16.04.2019 18:00:00 10,1 4,7 0,0
16.04.2019 17:00:00 10,2 5,2 0,0
16.04.2019 16:00:00 10,3 3,9 0,0

tt = Température de l'air
td = dewpoint
rr = Quantités de précipitations

stations d'obs. à proximité